sat.trackr.live / text

‹ back to catalog

STARLINK-5707

NORAD 56879 · 2023-083D

PAYLOAD ACTIVE UNKNOWN

§ Identity

Operator
Country
US
Launch date
2023-06-12
Launch site
AFETR
Launch vehicle
Mass (kg)
RCS (m²)

Purposes: comms

External: N2YO · Heavens-Above · Gunter

§ Orbital elements

Epoch: 2026-05-24T21:54:16.161120Z

Period
94.27 min
Inclination
43.0056°
Eccentricity
0.0001482
Mean motion
15.27571242 rev/d
Perigee alt
482.1 km
Apogee alt
484.1 km
Semi-major
6,861.2 km
B*
-5.4475e-7
RAAN
15.0752°
Arg perigee
269.0024°
Mean anomaly
91.0657°
Rev number
16,328

§ Raw data

STARLINK-57071 56879U 23083D   26144.91268705 -.00000277  00000+0 -54475-6 0  99942 56879  43.0056  15.0752 0001482 269.0024  91.0657 15.27571242163287

JSON: /api/v1/satellites/56879 · /tle

For live sub-satellite position, see the globe view (requires WebGL).

§ Visibility from observer

Set your observer location to see the next 7 days of passes ≥ 10°. The values pass through the URL so the page stays shareable.

No JS? Fill the form by hand. The geolocation button needs JavaScript.